Year,Month,Day,Hour,Minute,Value (Times are PST for temperature in C)
2016,05,29,00,00,11.70
2016,05,29,00,01,11.70
2016,05,29,00,02,11.70
2016,05,29,00,03,11.70
2016,05,29,00,04,11.70
2016,05,29,00,05,11.70
2016,05,29,00,06,11.70
2016,05,29,00,07,11.70
2016,05,29,00,08,11.70
2016,05,29,00,09,11.80
2016,05,29,00,10,11.80
2016,05,29,00,11,11.80
2016,05,29,00,12,11.80
2016,05,29,00,13,11.80
2016,05,29,00,14,11.80
2016,05,29,00,15,11.80
2016,05,29,00,16,11.80
2016,05,29,00,17,11.80
2016,05,29,00,18,11.70
2016,05,29,00,19,11.70
2016,05,29,00,20,11.70
2016,05,29,00,21,11.70
2016,05,29,00,22,11.70
2016,05,29,00,23,11.70
2016,05,29,00,24,11.70
2016,05,29,00,25,11.70
2016,05,29,00,26,11.70
2016,05,29,00,27,11.70
2016,05,29,00,28,11.70
2016,05,29,00,29,11.70
2016,05,29,00,30,11.70
2016,05,29,00,31,11.70
2016,05,29,00,32,11.70
2016,05,29,00,33,11.70
2016,05,29,00,34,11.70
2016,05,29,00,35,11.60
2016,05,29,00,36,11.60
2016,05,29,00,37,11.60
2016,05,29,00,38,11.60
2016,05,29,00,39,11.60
2016,05,29,00,40,11.60
2016,05,29,00,41,11.60
2016,05,29,00,42,11.60
2016,05,29,00,43,11.60
2016,05,29,00,44,11.60
2016,05,29,00,45,11.60
2016,05,29,00,46,11.60
2016,05,29,00,47,11.60
2016,05,29,00,48,11.60
2016,05,29,00,49,11.40
2016,05,29,00,50,11.40
2016,05,29,00,52,11.40
2016,05,29,00,53,11.40
2016,05,29,00,54,11.40
2016,05,29,00,56,11.40
2016,05,29,00,57,11.40
2016,05,29,00,58,11.40
2016,05,29,00,59,11.40
2016,05,29,01,00,11.40
2016,05,29,01,02,11.30
2016,05,29,01,03,11.30
2016,05,29,01,04,11.30
2016,05,29,01,06,11.30
2016,05,29,01,07,11.30
2016,05,29,01,08,11.30
2016,05,29,01,09,11.30
2016,05,29,01,11,11.30
2016,05,29,01,12,11.30
2016,05,29,01,13,11.30
2016,05,29,01,14,11.30
2016,05,29,01,16,11.40
2016,05,29,01,17,11.40
2016,05,29,01,18,11.40
2016,05,29,01,19,11.40
2016,05,29,01,21,11.40
2016,05,29,01,22,11.40
2016,05,29,01,23,11.40
2016,05,29,01,24,11.40
2016,05,29,01,26,11.40
2016,05,29,01,27,11.40
2016,05,29,01,28,11.40
2016,05,29,01,29,11.40
2016,05,29,01,31,11.40
2016,05,29,01,32,11.40
2016,05,29,01,33,11.40
2016,05,29,01,34,11.40
2016,05,29,01,36,11.40
2016,05,29,01,37,11.40
2016,05,29,01,38,11.40
2016,05,29,01,39,11.40
2016,05,29,01,41,11.40
2016,05,29,01,42,11.40
2016,05,29,01,43,11.40
2016,05,29,01,44,11.40
2016,05,29,01,46,11.40
2016,05,29,01,47,11.40
2016,05,29,01,48,11.40
2016,05,29,01,49,11.40
2016,05,29,01,51,11.40
2016,05,29,01,52,11.40
2016,05,29,01,53,11.40
2016,05,29,01,54,11.40
2016,05,29,01,56,11.40
2016,05,29,01,57,11.40
2016,05,29,01,58,11.40
2016,05,29,01,59,11.40
2016,05,29,02,01,11.40
2016,05,29,02,02,11.40
2016,05,29,02,03,11.40
2016,05,29,02,04,11.60
2016,05,29,02,06,11.60
2016,05,29,02,07,11.60
2016,05,29,02,08,11.60
2016,05,29,02,09,11.60
2016,05,29,02,11,11.60
2016,05,29,02,12,11.60
2016,05,29,02,13,11.60
2016,05,29,02,14,11.60
2016,05,29,02,15,11.60
2016,05,29,02,16,11.60
2016,05,29,02,17,11.60
2016,05,29,02,18,11.60
2016,05,29,02,19,11.60
2016,05,29,02,20,11.60
2016,05,29,02,21,11.60
2016,05,29,02,22,11.60
2016,05,29,02,23,11.60
2016,05,29,02,24,11.60
2016,05,29,02,25,11.60
2016,05,29,02,26,11.60
2016,05,29,02,27,11.60
2016,05,29,02,28,11.60
2016,05,29,02,29,11.60
2016,05,29,02,30,11.60
2016,05,29,02,31,11.60
2016,05,29,02,32,11.60
2016,05,29,02,33,11.60
2016,05,29,02,34,11.60
2016,05,29,02,35,11.60
2016,05,29,02,36,11.60
2016,05,29,02,37,11.60
2016,05,29,02,38,11.60
2016,05,29,02,39,11.60
2016,05,29,02,40,11.60
2016,05,29,02,41,11.60
2016,05,29,02,42,11.60
2016,05,29,02,43,11.70
2016,05,29,02,44,11.70
2016,05,29,02,45,11.70
2016,05,29,02,46,11.70
2016,05,29,02,47,11.70
2016,05,29,02,48,11.70
2016,05,29,02,49,11.80
2016,05,29,02,50,11.80
2016,05,29,02,51,11.80
2016,05,29,02,52,11.80
2016,05,29,02,53,11.80
2016,05,29,02,54,11.80
2016,05,29,02,55,11.80
2016,05,29,02,56,11.80
2016,05,29,02,57,11.80
2016,05,29,02,58,11.80
2016,05,29,02,59,11.80
2016,05,29,03,00,11.80
2016,05,29,03,01,11.80
2016,05,29,03,02,11.80
2016,05,29,03,03,11.80
2016,05,29,03,04,11.80
2016,05,29,03,05,11.80
2016,05,29,03,06,11.80
2016,05,29,03,07,11.80
2016,05,29,03,08,11.80
2016,05,29,03,09,11.80
2016,05,29,03,10,11.80
2016,05,29,03,11,11.80
2016,05,29,03,12,11.80
2016,05,29,03,13,11.80
2016,05,29,03,14,11.80
2016,05,29,03,15,11.80
2016,05,29,03,16,11.80
2016,05,29,03,17,11.80
2016,05,29,03,18,11.80
2016,05,29,03,19,11.80
2016,05,29,03,20,11.80
2016,05,29,03,21,11.80
2016,05,29,03,22,11.80
2016,05,29,03,23,11.80
2016,05,29,03,24,11.80
2016,05,29,03,25,11.80
2016,05,29,03,26,11.80
2016,05,29,03,27,11.80
2016,05,29,03,28,11.80
2016,05,29,03,29,11.80
2016,05,29,03,30,11.80
2016,05,29,03,31,11.80
2016,05,29,03,32,11.80
2016,05,29,03,33,11.80
2016,05,29,03,34,11.80
2016,05,29,03,36,11.80
2016,05,29,03,37,11.80
2016,05,29,03,38,11.80
2016,05,29,03,39,11.80
2016,05,29,03,41,11.80
2016,05,29,03,42,11.80
2016,05,29,03,43,11.80
2016,05,29,03,44,11.80
2016,05,29,03,46,11.80
2016,05,29,03,47,11.80
2016,05,29,03,48,11.80
2016,05,29,03,49,11.80
2016,05,29,03,51,11.80
2016,05,29,03,52,11.80
2016,05,29,03,53,11.80
2016,05,29,03,54,11.80
2016,05,29,03,56,11.80
2016,05,29,03,57,11.80
2016,05,29,03,58,11.80
2016,05,29,03,59,11.80
2016,05,29,04,01,11.80
2016,05,29,04,02,11.80
2016,05,29,04,03,11.70
2016,05,29,04,04,11.70
2016,05,29,04,06,11.70
2016,05,29,04,07,11.70
2016,05,29,04,08,11.70
2016,05,29,04,09,11.70
2016,05,29,04,11,11.70
2016,05,29,04,12,11.70
2016,05,29,04,13,11.70
2016,05,29,04,14,11.70
2016,05,29,04,16,11.70
2016,05,29,04,17,11.70
2016,05,29,04,18,11.70
2016,05,29,04,19,11.70
2016,05,29,04,21,11.70
2016,05,29,04,22,11.70
2016,05,29,04,23,11.70
2016,05,29,04,24,11.70
2016,05,29,04,26,11.70
2016,05,29,04,27,11.60
2016,05,29,04,28,11.60
2016,05,29,04,29,11.60
2016,05,29,04,31,11.60
2016,05,29,04,32,11.60
2016,05,29,04,33,11.60
2016,05,29,04,34,11.60
2016,05,29,04,36,11.60
2016,05,29,04,37,11.60
2016,05,29,04,38,11.60
2016,05,29,04,39,11.60
2016,05,29,04,41,11.60
2016,05,29,04,42,11.60
2016,05,29,04,43,11.60
2016,05,29,04,44,11.60
2016,05,29,04,45,11.60
2016,05,29,04,46,11.60
2016,05,29,04,47,11.60
2016,05,29,04,48,11.60
2016,05,29,04,49,11.60
2016,05,29,04,50,11.60
2016,05,29,04,51,11.60
2016,05,29,04,52,11.60
2016,05,29,04,53,11.60
2016,05,29,04,54,11.60
2016,05,29,04,55,11.60
2016,05,29,04,56,11.60
2016,05,29,04,57,11.60
2016,05,29,04,58,11.60
2016,05,29,04,59,11.60
2016,05,29,05,00,11.60
2016,05,29,05,01,11.60
2016,05,29,05,02,11.60
2016,05,29,05,03,11.60
2016,05,29,05,04,11.60
2016,05,29,05,06,11.60
2016,05,29,05,07,11.60
2016,05,29,05,08,11.40
2016,05,29,05,09,11.40
2016,05,29,05,10,11.40
2016,05,29,05,11,11.40
2016,05,29,05,12,11.40
2016,05,29,05,13,11.40
2016,05,29,05,14,11.40
2016,05,29,05,15,11.40
2016,05,29,05,16,11.40
2016,05,29,05,17,11.40
2016,05,29,05,18,11.40
2016,05,29,05,19,11.40
2016,05,29,05,20,11.40
2016,05,29,05,21,11.40
2016,05,29,05,22,11.40
2016,05,29,05,23,11.40
2016,05,29,05,24,11.40
2016,05,29,05,25,11.40
2016,05,29,05,26,11.40
2016,05,29,05,27,11.40
2016,05,29,05,28,11.40
2016,05,29,05,29,11.40
2016,05,29,05,30,11.40
2016,05,29,05,31,11.40
2016,05,29,05,32,11.40
2016,05,29,05,33,11.40
2016,05,29,05,34,11.40
2016,05,29,05,35,11.40
2016,05,29,05,36,11.40
2016,05,29,05,37,11.40
2016,05,29,05,38,11.40
2016,05,29,05,39,11.40
2016,05,29,05,40,11.40
2016,05,29,05,41,11.40
2016,05,29,05,42,11.40
2016,05,29,05,43,11.40
2016,05,29,05,44,11.40
2016,05,29,05,45,11.40
2016,05,29,05,46,11.30
2016,05,29,05,47,11.30
2016,05,29,05,48,11.30
2016,05,29,05,49,11.30
2016,05,29,05,50,11.30
2016,05,29,05,51,11.30
2016,05,29,05,52,11.30
2016,05,29,05,53,11.30
2016,05,29,05,54,11.30
2016,05,29,05,55,11.30
2016,05,29,05,56,11.30
2016,05,29,05,57,11.30
2016,05,29,05,58,11.30
2016,05,29,05,59,11.30
2016,05,29,06,00,11.30
2016,05,29,06,01,11.30
2016,05,29,06,02,11.30
2016,05,29,06,03,11.30
2016,05,29,06,04,11.30
2016,05,29,06,05,11.30
2016,05,29,06,06,11.30
2016,05,29,06,07,11.30
2016,05,29,06,08,11.30
2016,05,29,06,09,11.30
2016,05,29,06,10,11.30
2016,05,29,06,11,11.30
2016,05,29,06,12,11.30
2016,05,29,06,14,11.30
2016,05,29,06,16,11.30
2016,05,29,06,17,11.30
2016,05,29,06,18,11.30
2016,05,29,06,19,11.30
2016,05,29,06,21,11.30
2016,05,29,06,22,11.30
2016,05,29,06,23,11.30
2016,05,29,06,24,11.30
2016,05,29,06,26,11.30
2016,05,29,06,27,11.30
2016,05,29,06,28,11.30
2016,05,29,06,29,11.30
2016,05,29,06,31,11.30
2016,05,29,06,32,11.30
2016,05,29,06,33,11.30
2016,05,29,06,34,11.30
2016,05,29,06,36,11.30
2016,05,29,06,37,11.30
2016,05,29,06,38,11.30
2016,05,29,06,39,11.40
2016,05,29,06,41,11.40
2016,05,29,06,42,11.40
2016,05,29,06,43,11.40
2016,05,29,06,44,11.40
2016,05,29,06,46,11.40
2016,05,29,06,47,11.40
2016,05,29,06,48,11.40
2016,05,29,06,49,11.40
2016,05,29,06,51,11.40
2016,05,29,06,52,11.40
2016,05,29,06,53,11.40
2016,05,29,06,54,11.40
2016,05,29,06,56,11.60
2016,05,29,06,57,11.60
2016,05,29,06,58,11.60
2016,05,29,06,59,11.60
2016,05,29,07,01,11.60
2016,05,29,07,02,11.60
2016,05,29,07,03,11.60
2016,05,29,07,04,11.60
2016,05,29,07,06,11.60
2016,05,29,07,07,11.70
2016,05,29,07,08,11.70
2016,05,29,07,09,11.80
2016,05,29,07,11,11.80
2016,05,29,07,12,11.80
2016,05,29,07,13,11.80
2016,05,29,07,14,11.80
2016,05,29,07,16,11.80
2016,05,29,07,17,11.80
2016,05,29,07,18,11.80
2016,05,29,07,19,11.80
2016,05,29,07,21,11.90
2016,05,29,07,22,11.90
2016,05,29,07,23,11.90
2016,05,29,07,24,11.90
2016,05,29,07,25,11.90
2016,05,29,07,26,11.90
2016,05,29,07,27,11.90
2016,05,29,07,28,11.90
2016,05,29,07,29,12.00
2016,05,29,07,31,12.00
2016,05,29,07,32,12.00
2016,05,29,07,33,12.00
2016,05,29,07,34,12.00
2016,05,29,07,37,12.00
2016,05,29,07,38,12.00
2016,05,29,07,39,12.00
2016,05,29,07,41,12.10
2016,05,29,07,42,12.10
2016,05,29,07,43,12.10
2016,05,29,07,44,12.10
2016,05,29,07,46,12.10
2016,05,29,07,47,12.10
2016,05,29,07,48,12.10
2016,05,29,07,49,12.10
2016,05,29,07,51,12.10
2016,05,29,07,52,12.10
2016,05,29,07,53,12.10
2016,05,29,07,54,12.10
2016,05,29,07,56,12.20
2016,05,29,07,57,12.20
2016,05,29,07,58,12.20
2016,05,29,07,59,12.30
2016,05,29,08,01,12.30
2016,05,29,08,02,12.30
2016,05,29,08,03,12.30
2016,05,29,08,04,12.30
2016,05,29,08,06,12.30
2016,05,29,08,07,12.30
2016,05,29,08,08,12.30
2016,05,29,08,09,12.30
2016,05,29,08,11,12.30
2016,05,29,08,12,12.30
2016,05,29,08,13,12.30
2016,05,29,08,14,12.40
2016,05,29,08,16,12.40
2016,05,29,08,17,12.40
2016,05,29,08,18,12.40
2016,05,29,08,19,12.40
2016,05,29,08,21,12.40
2016,05,29,08,22,12.40
2016,05,29,08,23,12.40
2016,05,29,08,24,12.40
2016,05,29,08,26,12.50
2016,05,29,08,27,12.50
2016,05,29,08,28,12.50
2016,05,29,08,29,12.60
2016,05,29,08,31,12.60
2016,05,29,08,32,12.60
2016,05,29,08,33,12.70
2016,05,29,08,34,12.70
2016,05,29,08,36,12.70
2016,05,29,08,37,12.80
2016,05,29,08,38,12.80
2016,05,29,08,39,12.80
2016,05,29,08,41,12.80
2016,05,29,08,42,12.80
2016,05,29,08,43,12.80
2016,05,29,08,44,12.80
2016,05,29,08,45,12.90
2016,05,29,08,46,12.90
2016,05,29,08,47,13.00
2016,05,29,08,48,13.00
2016,05,29,08,49,13.10
2016,05,29,08,50,13.10
2016,05,29,08,51,13.10
2016,05,29,08,52,13.20
2016,05,29,08,53,13.20
2016,05,29,08,54,13.20
2016,05,29,08,55,13.20
2016,05,29,08,56,13.30
2016,05,29,08,57,13.30
2016,05,29,08,58,13.30
2016,05,29,08,59,13.30
2016,05,29,09,00,13.30
2016,05,29,09,01,13.30
2016,05,29,09,02,13.30
2016,05,29,09,03,13.30
2016,05,29,09,04,13.30
2016,05,29,09,05,13.30
2016,05,29,09,06,13.30
2016,05,29,09,07,13.30
2016,05,29,09,08,13.30
2016,05,29,09,09,13.30
2016,05,29,09,10,13.30
2016,05,29,09,11,13.30
2016,05,29,09,12,13.30
2016,05,29,09,13,13.30
2016,05,29,09,14,13.30
2016,05,29,09,15,13.30
2016,05,29,09,16,13.30
2016,05,29,09,17,13.30
2016,05,29,09,18,13.30
2016,05,29,09,19,13.30
2016,05,29,09,20,13.30
2016,05,29,09,21,13.30
2016,05,29,09,22,13.30
2016,05,29,09,23,13.30
2016,05,29,09,24,13.30
2016,05,29,09,25,13.40
2016,05,29,09,26,13.40
2016,05,29,09,27,13.40
2016,05,29,09,28,13.40
2016,05,29,09,29,13.40
2016,05,29,09,30,13.40
2016,05,29,09,31,13.40
2016,05,29,09,32,13.40
2016,05,29,09,33,13.40
2016,05,29,09,34,13.40
2016,05,29,09,35,13.40
2016,05,29,09,36,13.40
2016,05,29,09,37,13.40
2016,05,29,09,38,13.30
2016,05,29,09,39,13.30
2016,05,29,09,40,13.30
2016,05,29,09,41,13.40
2016,05,29,09,42,13.40
2016,05,29,09,43,13.40
2016,05,29,09,44,13.40
2016,05,29,09,45,13.40
2016,05,29,09,46,13.40
2016,05,29,09,47,13.40
2016,05,29,09,48,13.50
2016,05,29,09,49,13.50
2016,05,29,09,50,13.50
2016,05,29,09,51,13.50
2016,05,29,09,52,13.50
2016,05,29,09,53,13.60
2016,05,29,09,54,13.60
2016,05,29,09,55,13.70
2016,05,29,09,56,13.70
2016,05,29,09,57,13.70
2016,05,29,09,58,13.70
2016,05,29,09,59,13.70
2016,05,29,10,00,13.70
2016,05,29,10,01,13.70
2016,05,29,10,02,13.70
2016,05,29,10,03,13.80
2016,05,29,10,04,13.80
2016,05,29,10,05,13.90
2016,05,29,10,06,14.00
2016,05,29,10,07,14.10
2016,05,29,10,08,14.20
2016,05,29,10,09,14.20
2016,05,29,10,10,14.30
2016,05,29,10,11,14.40
2016,05,29,10,13,14.60
2016,05,29,10,14,14.60
2016,05,29,10,16,14.80
2016,05,29,10,17,14.80
2016,05,29,10,18,14.90
2016,05,29,10,19,15.00
2016,05,29,10,21,15.20
2016,05,29,10,22,15.20
2016,05,29,10,23,15.30
2016,05,29,10,24,15.30
2016,05,29,10,26,15.40
2016,05,29,10,27,15.50
2016,05,29,10,28,15.50
2016,05,29,10,29,15.50
2016,05,29,10,31,15.70
2016,05,29,10,32,15.70
2016,05,29,10,33,15.80
2016,05,29,10,34,15.80
2016,05,29,10,36,16.10
2016,05,29,10,37,16.10
2016,05,29,10,38,16.10
2016,05,29,10,39,16.10
2016,05,29,10,41,15.90
2016,05,29,10,42,15.90
2016,05,29,10,43,15.80
2016,05,29,10,44,15.80
2016,05,29,10,46,15.60
2016,05,29,10,47,15.50
2016,05,29,10,48,15.40
2016,05,29,10,49,15.30
2016,05,29,10,51,15.30
2016,05,29,10,52,15.30
2016,05,29,10,53,15.20
2016,05,29,10,54,15.20
2016,05,29,10,56,15.10
2016,05,29,10,57,15.10
2016,05,29,10,58,15.10
2016,05,29,10,59,15.10
2016,05,29,11,01,15.10
2016,05,29,11,02,15.10
2016,05,29,11,03,15.20
2016,05,29,11,04,15.20
2016,05,29,11,06,15.20
2016,05,29,11,07,15.20
2016,05,29,11,08,15.20
2016,05,29,11,09,15.20
2016,05,29,11,11,15.30
2016,05,29,11,12,15.30
2016,05,29,11,13,15.30
2016,05,29,11,14,15.30
2016,05,29,11,16,15.30
2016,05,29,11,17,15.30
2016,05,29,11,18,15.20
2016,05,29,11,19,15.20
2016,05,29,11,21,15.10
2016,05,29,11,22,15.10
2016,05,29,11,23,15.10
2016,05,29,11,24,15.10
2016,05,29,11,25,15.10
2016,05,29,11,26,15.10
2016,05,29,11,27,15.10
2016,05,29,11,28,15.10
2016,05,29,11,29,15.10
2016,05,29,11,31,15.10
2016,05,29,11,32,15.20
2016,05,29,11,33,15.20
2016,05,29,11,34,15.20
2016,05,29,11,36,15.20
2016,05,29,11,37,15.30
2016,05,29,11,38,15.20
2016,05,29,11,39,15.20
2016,05,29,11,41,15.10
2016,05,29,11,42,15.10
2016,05,29,11,43,15.00
2016,05,29,11,44,15.00
2016,05,29,11,45,15.00
2016,05,29,11,46,15.00
2016,05,29,11,47,14.90
2016,05,29,11,48,14.90
2016,05,29,11,49,14.90
2016,05,29,11,50,14.90
2016,05,29,11,51,14.90
2016,05,29,11,52,14.90
2016,05,29,11,53,14.90
2016,05,29,11,54,14.90
2016,05,29,11,55,15.00
2016,05,29,11,56,15.00
2016,05,29,11,57,15.00
2016,05,29,11,58,15.10
2016,05,29,11,59,15.10
2016,05,29,12,00,15.10
2016,05,29,12,01,15.20
2016,05,29,12,02,15.20
2016,05,29,12,03,15.30
2016,05,29,12,04,15.30
2016,05,29,12,05,15.30
2016,05,29,12,06,15.30
2016,05,29,12,07,15.30
2016,05,29,12,08,15.30
2016,05,29,12,09,15.30
2016,05,29,12,10,15.40
2016,05,29,12,11,15.40
2016,05,29,12,12,15.30
2016,05,29,12,13,15.30
2016,05,29,12,14,15.30
2016,05,29,12,15,15.30
2016,05,29,12,16,15.30
2016,05,29,12,17,15.40
2016,05,29,12,18,15.40
2016,05,29,12,19,15.40
2016,05,29,12,20,15.40
2016,05,29,12,21,15.40
2016,05,29,12,22,15.40
2016,05,29,12,23,15.40
2016,05,29,12,24,15.50
2016,05,29,12,25,15.50
2016,05,29,12,26,15.60
2016,05,29,12,27,15.60
2016,05,29,12,28,15.70
2016,05,29,12,29,15.70
2016,05,29,12,30,15.80
2016,05,29,12,31,15.80
2016,05,29,12,32,15.80
2016,05,29,12,33,15.80
2016,05,29,12,34,15.90
2016,05,29,12,35,16.10
2016,05,29,12,36,16.10
2016,05,29,12,37,16.20
2016,05,29,12,38,16.30
2016,05,29,12,39,16.40
2016,05,29,12,40,16.60
2016,05,29,12,41,16.60
2016,05,29,12,42,16.70
2016,05,29,12,43,16.70
2016,05,29,12,44,16.60
2016,05,29,12,45,16.60
2016,05,29,12,46,16.40
2016,05,29,12,47,16.40
2016,05,29,12,48,16.40
2016,05,29,12,49,16.40
2016,05,29,12,50,16.40
2016,05,29,12,51,16.40
2016,05,29,12,52,16.60
2016,05,29,12,53,16.60
2016,05,29,12,54,16.70
2016,05,29,12,55,16.70
2016,05,29,12,56,16.70
2016,05,29,12,57,16.80
2016,05,29,12,58,16.90
2016,05,29,12,59,16.90
2016,05,29,13,00,17.00
2016,05,29,13,01,17.10
2016,05,29,13,03,17.30
2016,05,29,13,04,17.30
2016,05,29,13,06,17.50
2016,05,29,13,07,17.60
2016,05,29,13,08,17.60
2016,05,29,13,09,17.70
2016,05,29,13,11,17.70
2016,05,29,13,12,17.80
2016,05,29,13,13,17.80
2016,05,29,13,14,17.80
2016,05,29,13,16,17.90
2016,05,29,13,17,17.90
2016,05,29,13,18,17.90
2016,05,29,13,19,17.90
2016,05,29,13,21,17.90
2016,05,29,13,22,17.90
2016,05,29,13,23,17.90
2016,05,29,13,24,18.10
2016,05,29,13,26,18.10
2016,05,29,13,27,18.20
2016,05,29,13,28,18.20
2016,05,29,13,29,18.20
2016,05,29,13,31,18.30
2016,05,29,13,32,18.40
2016,05,29,13,33,18.40
2016,05,29,13,34,18.50
2016,05,29,13,36,18.50
2016,05,29,13,37,18.60
2016,05,29,13,38,18.60
2016,05,29,13,39,18.60
2016,05,29,13,41,18.60
2016,05,29,13,42,18.60
2016,05,29,13,43,18.60
2016,05,29,13,44,18.50
2016,05,29,13,46,18.40
2016,05,29,13,47,18.40
2016,05,29,13,48,18.30
2016,05,29,13,49,18.30
2016,05,29,13,51,18.30
2016,05,29,13,52,18.30
2016,05,29,13,53,18.20
2016,05,29,13,54,18.20
2016,05,29,13,56,18.20
2016,05,29,13,57,18.20
2016,05,29,13,58,18.20
2016,05,29,13,59,18.20
2016,05,29,14,01,18.20
2016,05,29,14,02,18.20
2016,05,29,14,03,18.20
2016,05,29,14,04,18.30
2016,05,29,14,06,18.40
2016,05,29,14,07,18.40
2016,05,29,14,08,18.50
2016,05,29,14,09,18.50
2016,05,29,14,11,18.50
2016,05,29,14,12,18.40
2016,05,29,14,13,18.40
2016,05,29,14,14,18.40
2016,05,29,14,16,18.40
2016,05,29,14,17,18.30
2016,05,29,14,18,18.30
2016,05,29,14,19,18.30
2016,05,29,14,21,18.30
2016,05,29,14,22,18.30
2016,05,29,14,23,18.30
2016,05,29,14,24,18.20
2016,05,29,14,25,18.20
2016,05,29,14,26,18.20
2016,05,29,14,27,18.20
2016,05,29,14,28,18.20
2016,05,29,14,29,18.20
2016,05,29,14,30,18.20
2016,05,29,14,31,18.20
2016,05,29,14,32,18.20
2016,05,29,14,33,18.20
2016,05,29,14,34,18.20
2016,05,29,14,36,18.20
2016,05,29,14,37,18.20
2016,05,29,14,38,18.20
2016,05,29,14,39,18.20
2016,05,29,14,40,18.20
2016,05,29,14,41,18.30
2016,05,29,14,42,18.30
2016,05,29,14,43,18.40
2016,05,29,14,44,18.40
2016,05,29,14,45,18.40
2016,05,29,14,46,18.40
2016,05,29,14,47,18.40
2016,05,29,14,48,18.40
2016,05,29,14,49,18.40
2016,05,29,14,50,18.40
2016,05,29,14,51,18.50
2016,05,29,14,52,18.50
2016,05,29,14,53,18.40
2016,05,29,14,54,18.30
2016,05,29,14,55,18.30
2016,05,29,14,56,18.20
2016,05,29,14,57,18.20
2016,05,29,14,58,18.20
2016,05,29,14,59,18.20
2016,05,29,15,00,18.10
2016,05,29,15,01,17.90
2016,05,29,15,02,17.90
2016,05,29,15,03,17.90
2016,05,29,15,04,17.90
2016,05,29,15,05,17.90
2016,05,29,15,06,17.90
2016,05,29,15,07,17.90
2016,05,29,15,08,17.90
2016,05,29,15,09,17.90
2016,05,29,15,10,17.90
2016,05,29,15,11,18.10
2016,05,29,15,12,18.10
2016,05,29,15,13,18.10
2016,05,29,15,14,18.20
2016,05,29,15,15,18.20
2016,05,29,15,16,18.20
2016,05,29,15,17,18.20
2016,05,29,15,18,18.30
2016,05,29,15,19,18.30
2016,05,29,15,20,18.40
2016,05,29,15,21,18.50
2016,05,29,15,22,18.50
2016,05,29,15,23,18.60
2016,05,29,15,24,18.60
2016,05,29,15,25,18.70
2016,05,29,15,26,18.70
2016,05,29,15,27,18.80
2016,05,29,15,28,18.80
2016,05,29,15,29,18.80
2016,05,29,15,30,18.90
2016,05,29,15,31,18.90
2016,05,29,15,32,18.90
2016,05,29,15,33,18.90
2016,05,29,15,34,19.10
2016,05,29,15,35,19.10
2016,05,29,15,36,19.10
2016,05,29,15,37,19.10
2016,05,29,15,38,19.10
2016,05,29,15,39,19.20
2016,05,29,15,40,19.20
2016,05,29,15,41,19.30
2016,05,29,15,42,19.30
2016,05,29,15,43,19.30
2016,05,29,15,44,19.30
2016,05,29,15,45,19.30
2016,05,29,15,46,19.30
2016,05,29,15,48,19.40
2016,05,29,15,49,19.40
2016,05,29,15,51,19.30
2016,05,29,15,52,19.40
2016,05,29,15,53,19.40
2016,05,29,15,54,19.40
2016,05,29,15,56,19.40
2016,05,29,15,57,19.40
2016,05,29,15,58,19.40
2016,05,29,15,59,19.40
2016,05,29,16,01,19.40
2016,05,29,16,02,19.40
2016,05,29,16,03,19.40
2016,05,29,16,04,19.40
2016,05,29,16,06,19.30
2016,05,29,16,07,19.30
2016,05,29,16,08,19.30
2016,05,29,16,09,19.30
2016,05,29,16,11,19.30
2016,05,29,16,12,19.30
2016,05,29,16,13,19.20
2016,05,29,16,14,19.20
2016,05,29,16,16,19.20
2016,05,29,16,17,19.20
2016,05,29,16,18,19.20
2016,05,29,16,19,19.30
2016,05,29,16,21,19.40
2016,05,29,16,22,19.40
2016,05,29,16,23,19.40
2016,05,29,16,24,19.40
2016,05,29,16,26,19.40
2016,05,29,16,27,19.40
2016,05,29,16,28,19.40
2016,05,29,16,29,19.40
2016,05,29,16,31,19.50
2016,05,29,16,32,19.50
2016,05,29,16,33,19.50
2016,05,29,16,34,19.60
2016,05,29,16,36,19.60
2016,05,29,16,37,19.70
2016,05,29,16,38,19.60
2016,05,29,16,39,19.60
2016,05,29,16,41,19.60
2016,05,29,16,42,19.60
2016,05,29,16,43,19.60
2016,05,29,16,44,19.50
2016,05,29,16,46,19.40
2016,05,29,16,47,19.40
2016,05,29,16,48,19.40
2016,05,29,16,49,19.40
2016,05,29,16,51,19.40
2016,05,29,16,52,19.30
2016,05,29,16,53,19.30
2016,05,29,16,54,19.40
2016,05,29,16,56,19.40
2016,05,29,16,57,19.40
2016,05,29,16,58,19.50
2016,05,29,16,59,19.50
2016,05,29,17,01,19.50
2016,05,29,17,02,19.50
2016,05,29,17,03,19.50
2016,05,29,17,04,19.40
2016,05,29,17,06,19.40
2016,05,29,17,07,19.30
2016,05,29,17,08,19.30
2016,05,29,17,09,19.30
2016,05,29,17,11,19.30
2016,05,29,17,12,19.30
2016,05,29,17,13,19.30
2016,05,29,17,14,19.30
2016,05,29,17,15,19.30
2016,05,29,17,16,19.30
2016,05,29,17,17,19.30
2016,05,29,17,18,19.40
2016,05,29,17,19,19.30
2016,05,29,17,20,19.30
2016,05,29,17,21,19.30
2016,05,29,17,22,19.30
2016,05,29,17,23,19.30
2016,05,29,17,24,19.30
2016,05,29,17,25,19.30
2016,05,29,17,26,19.20
2016,05,29,17,27,19.20
2016,05,29,17,28,19.20
2016,05,29,17,29,19.10
2016,05,29,17,30,19.10
2016,05,29,17,31,19.10
2016,05,29,17,32,19.10
2016,05,29,17,33,19.10
2016,05,29,17,34,19.10
2016,05,29,17,35,19.10
2016,05,29,17,36,19.10
2016,05,29,17,37,19.10
2016,05,29,17,38,19.10
2016,05,29,17,39,19.10
2016,05,29,17,40,19.10
2016,05,29,17,41,19.10
2016,05,29,17,42,19.10
2016,05,29,17,43,19.10
2016,05,29,17,44,19.10
2016,05,29,17,45,19.10
2016,05,29,17,46,19.10
2016,05,29,17,47,19.10
2016,05,29,17,48,19.10
2016,05,29,17,49,18.90
2016,05,29,17,50,18.90
2016,05,29,17,51,18.90
2016,05,29,17,52,18.90
2016,05,29,17,53,18.90
2016,05,29,17,54,18.90
2016,05,29,17,55,18.90
2016,05,29,17,56,18.90
2016,05,29,17,57,18.80
2016,05,29,17,58,18.80
2016,05,29,17,59,18.80
2016,05,29,18,00,18.70
2016,05,29,18,01,18.60
2016,05,29,18,02,18.60
2016,05,29,18,03,18.60
2016,05,29,18,04,18.60
2016,05,29,18,05,18.60
2016,05,29,18,06,18.60
2016,05,29,18,07,18.60
2016,05,29,18,08,18.60
2016,05,29,18,09,18.60
2016,05,29,18,10,18.70
2016,05,29,18,11,18.70
2016,05,29,18,12,18.70
2016,05,29,18,13,18.80
2016,05,29,18,14,18.80
2016,05,29,18,15,18.90
2016,05,29,18,16,18.90
2016,05,29,18,17,18.90
2016,05,29,18,18,18.90
2016,05,29,18,19,18.90
2016,05,29,18,20,18.90
2016,05,29,18,21,18.90
2016,05,29,18,22,18.90
2016,05,29,18,23,18.90
2016,05,29,18,24,18.90
2016,05,29,18,25,18.90
2016,05,29,18,26,18.80
2016,05,29,18,27,18.80
2016,05,29,18,28,18.80
2016,05,29,18,29,18.80
2016,05,29,18,31,18.80
2016,05,29,18,32,18.80
2016,05,29,18,33,18.80
2016,05,29,18,34,18.80
2016,05,29,18,36,18.80
2016,05,29,18,37,18.70
2016,05,29,18,38,18.70
2016,05,29,18,39,18.70
2016,05,29,18,41,18.70
2016,05,29,18,42,18.80
2016,05,29,18,43,18.80
2016,05,29,18,44,18.70
2016,05,29,18,46,18.60
2016,05,29,18,47,18.60
2016,05,29,18,48,18.60
2016,05,29,18,49,18.50
2016,05,29,18,51,18.40
2016,05,29,18,52,18.30
2016,05,29,18,53,18.30
2016,05,29,18,54,18.20
2016,05,29,18,56,18.20
2016,05,29,18,57,18.20
2016,05,29,18,58,18.20
2016,05,29,18,59,18.20
2016,05,29,19,01,18.10
2016,05,29,19,02,18.10
2016,05,29,19,03,18.10
2016,05,29,19,04,17.90
2016,05,29,19,06,17.90
2016,05,29,19,07,17.90
2016,05,29,19,08,17.80
2016,05,29,19,09,17.80
2016,05,29,19,11,17.80
2016,05,29,19,12,17.90
2016,05,29,19,13,17.90
2016,05,29,19,14,17.90
2016,05,29,19,16,17.90
2016,05,29,19,17,17.90
2016,05,29,19,18,17.90
2016,05,29,19,19,17.90
2016,05,29,19,21,17.90
2016,05,29,19,22,17.90
2016,05,29,19,23,17.90
2016,05,29,19,24,17.90
2016,05,29,19,26,17.90
2016,05,29,19,27,17.90
2016,05,29,19,28,17.80